SBI9283 USCC-UUDD

Flight info

Callsign SBI9283
Flight time N/A
Altitude 38000
Route BEDOT2F BEDOT L158 URIDU T535 OKNAN T787 URAGO URAGO3L
Aircraft A320/M-V/N

Departure

Time 2026-05-04 16:53
Airport Kurchatov Chelyabinsk International Airport (USCC)

Arrival

Time N/A
Airport Domodedovo International Airport (UUDD)
Time Latitude Longitude Altitude Speed Heading
2026-05-04 16:25 55.29877 61.51043 744 ft 0 kts 243°
2026-05-04 16:42 55.29892 61.51093 745 ft 2 kts 243°
2026-05-04 16:43 55.29911 61.51133 744 ft 2 kts 220°
2026-05-04 16:43 55.29931 61.51162 744 ft 2 kts 229°
2026-05-04 16:43 55.29942 61.51179 744 ft 2 kts 221°
2026-05-04 16:44 55.29966 61.51215 743 ft 0 kts 195°
2026-05-04 16:46 55.29962 61.51213 743 ft 1 kts 189°
2026-05-04 16:47 55.29909 61.51358 743 ft 10 kts 103°
2026-05-04 16:47 55.29965 61.51590 740 ft 13 kts 30°
2026-05-04 16:48 55.29920 61.52090 737 ft 16 kts 105°
2026-05-04 16:48 55.29904 61.52212 737 ft 4 kts 103°
2026-05-04 16:49 55.29886 61.52347 737 ft 7 kts 104°
2026-05-04 16:49 55.29974 61.52597 732 ft 18 kts 44°
2026-05-04 16:50 55.30132 61.52737 729 ft 6 kts 13°
2026-05-04 16:50 55.30244 61.52753 729 ft 8 kts 319°
2026-05-04 16:51 55.30251 61.52729 729 ft 0 kts 281°
2026-05-04 16:51 55.30258 61.52671 730 ft 17 kts 282°
2026-05-04 16:52 55.30555 61.50512 751 ft 157 kts 283°
2026-05-04 16:52 55.30841 61.48457 1090 ft 183 kts 284°
2026-05-04 16:53 55.31723 61.44344 2828 ft 186 kts 307°
2026-05-04 16:53 55.34475 61.38795 4499 ft 232 kts 310°
2026-05-04 16:54 55.35537 61.36531 5062 ft 251 kts 309°
2026-05-04 16:55 55.40129 61.26613 7841 ft 269 kts 308°
2026-05-04 16:55 55.41894 61.20944 9095 ft 272 kts 278°
2026-05-04 16:56 55.41899 61.14247 10359 ft 278 kts 268°
2026-05-04 16:56 55.41723 61.03280 11375 ft 335 kts 268°
2026-05-04 16:57 55.41663 60.99046 11514 ft 358 kts 269°
2026-05-04 16:57 55.41534 60.89924 12013 ft 383 kts 268°
2026-05-04 16:58 55.39819 60.76178 13499 ft 393 kts 248°
2026-05-04 16:58 55.38751 60.71755 14011 ft 395 kts 248°
2026-05-04 16:59 55.36560 60.62877 15008 ft 399 kts 247°
2026-05-04 17:00 55.32142 60.44974 16982 ft 405 kts 247°
2026-05-04 17:00 55.28775 60.31374 18477 ft 409 kts 246°
2026-05-04 17:01 55.26495 60.22205 19483 ft 414 kts 245°
2026-05-04 17:01 55.24506 60.12771 20481 ft 417 kts 253°
2026-05-04 17:02 55.23513 60.02811 21479 ft 420 kts 261°
2026-05-04 17:02 55.22952 59.92631 22487 ft 421 kts 261°
2026-05-04 17:03 55.22681 59.87598 22988 ft 420 kts 261°
2026-05-04 17:03 55.22401 59.82499 23496 ft 419 kts 261°
2026-05-04 17:03 55.21926 59.72379 24525 ft 418 kts 263°
2026-05-04 17:04 55.21913 59.62244 25566 ft 418 kts 267°
2026-05-04 17:04 55.22171 59.52113 26359 ft 420 kts 268°
2026-05-04 17:05 55.22433 59.41930 27156 ft 420 kts 267°
2026-05-04 17:05 55.22688 59.31821 27948 ft 418 kts 266°
2026-05-04 17:06 55.22937 59.21693 28757 ft 416 kts 266°
2026-05-04 17:06 55.23058 59.16653 29154 ft 414 kts 266°